This is the latest recevied weather packets stored in our database for station/object SP1BMW-13. If no packets are shown the sender has not sent any weather packets the latest 10 day(s).
| Time | Temp. | Humidity | Pressure | Rain* | Wind** | Luminosity | Snow |
|---|---|---|---|---|---|---|---|
| 1788003381 | 24.44° C | 51% | 1009.6 hPa | 0 mm | 0.89 m/s, 75° | 719 W/m² | - |
| 1788003321 | 24.44° C | 50% | 1009.3 hPa | 0 mm | 3.13 m/s, 279° | 725 W/m² | - |
| 1788003261 | 24.44° C | 51% | 1009.4 hPa | 0 mm | 1.34 m/s, 276° | 724 W/m² | - |
| 1788003201 | 24.44° C | 51% | 1009.6 hPa | 0 mm | 1.79 m/s, 238° | 729 W/m² | - |
| 1788003141 | 25° C | 51% | 1009.5 hPa | 0 mm | 0.89 m/s, 240° | 728 W/m² | - |
| 1788003082 | 25° C | 51% | 1009.5 hPa | 0 mm | 1.34 m/s, 312° | 403 W/m² | - |
| 1788003020 | 25° C | 50% | 1009.4 hPa | 0 mm | 1.34 m/s, 252° | 229 W/m² | - |
| 1788002962 | 25° C | 50% | 1009.5 hPa | 0 mm | 1.34 m/s, 210° | 722 W/m² | - |
| 1788002901 | 25° C | 50% | 1009.5 hPa | 0 mm | 1.34 m/s, 260° | 714 W/m² | - |
| 1788002842 | 25° C | 50% | 1009.6 hPa | 0 mm | 1.79 m/s, 313° | 707 W/m² | - |
| 1788002782 | 25° C | 48% | 1009.7 hPa | 0 mm | 1.79 m/s, 102° | 691 W/m² | - |
| 1788002721 | 25° C | 49% | 1009.5 hPa | 0 mm | 0.89 m/s, 271° | 602 W/m² | - |
| 1788002661 | 25° C | 51% | 1009.5 hPa | 0 mm | 0.45 m/s, 110° | 465 W/m² | - |
| 1788002602 | 25° C | 50% | 1009.5 hPa | 0 mm | 1.34 m/s, 262° | 681 W/m² | - |
| 1788002541 | 25° C | 48% | 1009.4 hPa | 0 mm | 0.89 m/s, 287° | 679 W/m² | - |
| 1788002481 | 25° C | 48% | 1009.7 hPa | 0 mm | 0.89 m/s, 138° | 681 W/m² | - |
| 1788002421 | 25° C | 48% | 1009.7 hPa | 0 mm | 0.89 m/s, 301° | 668 W/m² | - |
| 1788002361 | 25° C | 48% | 1009.6 hPa | 0 mm | 1.34 m/s, 245° | 676 W/m² | - |
| 1788002301 | 25° C | 50% | 1009.7 hPa | 0 mm | 0.89 m/s, 299° | 686 W/m² | - |
| 1788002242 | 25° C | 48% | 1009.8 hPa | 0 mm | 0.89 m/s, 264° | 713 W/m² | - |
| 1788002181 | 25° C | 49% | 1009.6 hPa | 0 mm | 1.79 m/s, 301° | 220 W/m² | - |
| 1788002121 | 25° C | 51% | 1009.5 hPa | 0 mm | 1.34 m/s, 299° | 579 W/m² | - |
| 1788002061 | 25° C | 49% | 1009.5 hPa | 0 mm | 1.34 m/s, 319° | 678 W/m² | - |
| 1788002001 | 24.44° C | 49% | 1009.7 hPa | 0 mm | 0.45 m/s, 266° | 688 W/m² | - |
| 1788001941 | 24.44° C | 49% | 1009.7 hPa | 0 mm | 0.89 m/s, 8° | 686 W/m² | - |
* Rain latest hour (hover to see other rain measurements)
** Current wind speed in m/s (hover to see current wind gust speed)